Voltar ao catálogo

OPS 4682 DEB

AtivoPO
NORAD 17666·DEBRIS·🇺🇸 United States

Lançado Apr 3, 1965 de Vandenberg Space Force Base

Loading…

Próximas Passagens (próximas 24 horas)

TLE

AtualizadoSource: Space-Track

Época: Sep 14, 2026, 06:55 UTC

1 17666U 65027V   26257.28822664  .00001301  00000-0  44407-2 0  9992
2 17666  90.2531  14.0333 0042243 210.5277 177.7778 12.97450917961365

Acompanhe OPS 4682 DEB em tempo real com AllMySat

Download on the App Store